| time (UTC) | temp C | wind direction | speed KPH | gust KPH | rain 1hr cm | rain 24hr cm | rain mn cm | humidity % | barometer mb |
| 20260906143607 | 28 | 314 | 1.6 | 3.2 | 0.00 | 0.71 | 0.00 | 81 | 1012.5 |
| 20260906143107 | 28 | 295 | 1.6 | 3.2 | 0.00 | 0.71 | 0.00 | 82 | 1012.5 |
| 20260906142106 | 28 | 216 | 1.6 | 4.8 | 0.00 | 0.71 | 0.00 | 83 | 1012.6 |
| 20260906141606 | 28 | 316 | 0.0 | 4.8 | 0.00 | 0.71 | 0.00 | 83 | 1012.5 |
| 20260906140606 | 27 | 319 | 3.2 | 4.8 | 0.00 | 0.71 | 0.00 | 84 | 1012.6 |
| 20260906140107 | 27 | 318 | 1.6 | 4.8 | 0.00 | 0.71 | 0.00 | 86 | 1012.6 |
| 20260906135606 | 27 | 317 | 1.6 | 4.8 | 0.00 | 0.71 | 0.00 | 87 | 1012.7 |
| 20260906135106 | 26 | 313 | 3.2 | 6.4 | 0.00 | 0.71 | 0.00 | 89 | 1012.8 |
| 20260906134106 | 26 | 322 | 1.6 | 4.8 | 0.00 | 0.71 | 0.00 | 91 | 1012.9 |
| 20260906133607 | 26 | 335 | 0.0 | 1.6 | 0.00 | 0.71 | 0.00 | 92 | 1013.0 |
| 20260906133107 | 25 | 335 | 0.0 | 1.6 | 0.00 | 0.71 | 0.00 | 92 | 1013.1 |
| 20260906131106 | 25 | 335 | 0.0 | 1.6 | 0.00 | 0.71 | 0.00 | 94 | 1013.0 |
| 20260906130607 | 25 | 335 | 0.0 | 1.6 | 0.00 | 0.71 | 0.00 | 94 | 1012.9 |
| 20260906130107 | 25 | 335 | 0.0 | 0.0 | 0.00 | 0.71 | 0.00 | 94 | 1012.8 |
| 20260906125607 | 25 | 335 | 0.0 | 0.0 | 0.00 | 0.71 | 0.00 | 94 | 1012.9 |
| 20260906124606 | 24 | 335 | 0.0 | 0.0 | 0.00 | 0.71 | 0.00 | 94 | 1012.7 |
| 20260906124106 | 24 | 335 | 0.0 | 0.0 | 0.00 | 0.71 | 0.00 | 94 | 1012.7 |
| 20260906123606 | 24 | 335 | 0.0 | 0.0 | 0.00 | 0.71 | 0.00 | 94 | 1012.6 |
| 20260906123106 | 24 | 335 | 0.0 | 0.0 | 0.00 | 0.71 | 0.00 | 94 | 1012.5 |
| 20260906122607 | 24 | 335 | 0.0 | 0.0 | 0.00 | 0.71 | 0.00 | 94 | 1012.5 |
| 20260906122107 | 23 | 335 | 0.0 | 0.0 | 0.00 | 0.71 | 0.00 | 94 | 1012.5 |
| 20260906121606 | 23 | 335 | 0.0 | 0.0 | 0.00 | 0.71 | 0.00 | 94 | 1012.4 |
| 20260906120607 | 23 | 335 | 0.0 | 0.0 | 0.00 | 0.74 | 0.00 | 94 | 1012.6 |
| 20260906120106 | 23 | 335 | 0.0 | 0.0 | 0.00 | 0.74 | 0.00 | 94 | 1012.7 |
| 20260906115606 | 23 | 335 | 0.0 | 0.0 | 0.00 | 0.74 | 0.00 | 94 | 1012.6 |
| 20260906115106 | 23 | 335 | 0.0 | 0.0 | 0.00 | 0.74 | 0.00 | 94 | 1012.5 |
| 20260906114607 | 23 | 335 | 0.0 | 1.6 | 0.00 | 0.74 | 0.00 | 94 | 1012.4 |
| 20260906113606 | 23 | 335 | 0.0 | 1.6 | 0.00 | 0.74 | 0.00 | 94 | 1012.4 |
| 20260906113107 | 23 | 335 | 0.0 | 0.0 | 0.00 | 0.74 | 0.00 | 94 | 1012.4 |
| 20260906112606 | 23 | 335 | 0.0 | 0.0 | 0.00 | 0.74 | 0.00 | 94 | 1012.4 |
| 20260906112106 | 23 | 335 | 0.0 | 0.0 | 0.00 | 0.74 | 0.00 | 94 | 1012.4 |
| 20260906111106 | 23 | 335 | 0.0 | 0.0 | 0.00 | 0.79 | 0.00 | 94 | 1012.2 |
| 20260906110606 | 23 | 335 | 0.0 | 0.0 | 0.00 | 0.81 | 0.00 | 94 | 1012.2 |
| 20260906110106 | 23 | 335 | 0.0 | 0.0 | 0.00 | 0.84 | 0.00 | 94 | 1012.2 |
| 20260906105606 | 23 | 335 | 0.0 | 0.0 | 0.00 | 0.84 | 0.00 | 94 | 1012.3 |
| 20260906104606 | 23 | 335 | 0.0 | 0.0 | 0.00 | 0.84 | 0.00 | 94 | 1012.3 |
| 20260906104106 | 23 | 335 | 0.0 | 0.0 | 0.00 | 0.84 | 0.00 | 94 | 1012.3 |
| 20260906103106 | 23 | 335 | 0.0 | 0.0 | 0.00 | 0.84 | 0.00 | 94 | 1012.2 |
| 20260906102607 | 23 | 335 | 0.0 | 0.0 | 0.00 | 0.84 | 0.00 | 94 | 1012.0 |
| 20260906101606 | 23 | 335 | 0.0 | 0.0 | 0.00 | 0.84 | 0.00 | 94 | 1012.0 |
| 20260906100606 | 23 | 335 | 0.0 | 0.0 | 0.00 | 0.84 | 0.00 | 94 | 1011.9 |
| 20260906100106 | 23 | 335 | 0.0 | 0.0 | 0.00 | 0.84 | 0.00 | 94 | 1011.9 |
| 20260906095107 | 23 | 335 | 0.0 | 0.0 | 0.00 | 0.84 | 0.00 | 94 | 1011.9 |
| 20260906094606 | 23 | 335 | 0.0 | 0.0 | 0.00 | 0.84 | 0.00 | 94 | 1012.0 |
| 20260906094107 | 23 | 335 | 0.0 | 0.0 | 0.00 | 0.84 | 0.00 | 94 | 1011.9 |
| 20260906093606 | 24 | 335 | 0.0 | 0.0 | 0.00 | 0.84 | 0.00 | 94 | 1011.8 |
| 20260906093107 | 24 | 335 | 0.0 | 0.0 | 0.00 | 0.84 | 0.00 | 94 | 1011.6 |
| 20260906092107 | 24 | 335 | 0.0 | 1.6 | 0.00 | 0.84 | 0.00 | 94 | 1011.4 |
| 20260906091606 | 24 | 335 | 0.0 | 1.6 | 0.00 | 0.84 | 0.00 | 94 | 1011.4 |
| 20260906091106 | 23 | 344 | 0.0 | 0.0 | 0.00 | 0.89 | 0.00 | 94 | 1011.4 |
| 20260906090106 | 23 | 344 | 0.0 | 0.0 | 0.00 | 0.89 | 0.00 | 94 | 1011.4 |
| 20260906085606 | 23 | 344 | 0.0 | 0.0 | 0.00 | 0.89 | 0.00 | 94 | 1011.3 |
| 20260906085106 | 23 | 344 | 0.0 | 0.0 | 0.00 | 0.89 | 0.00 | 94 | 1011.2 |
| 20260906083606 | 24 | 344 | 0.0 | 0.0 | 0.00 | 0.89 | 0.00 | 94 | 1011.2 |
| 20260906083106 | 24 | 344 | 0.0 | 0.0 | 0.00 | 0.89 | 0.00 | 94 | 1011.2 |
| 20260906082606 | 24 | 344 | 0.0 | 0.0 | 0.00 | 0.89 | 0.00 | 93 | 1011.2 |
| 20260906082106 | 24 | 344 | 0.0 | 0.0 | 0.00 | 0.89 | 0.00 | 93 | 1011.2 |
| 20260906081606 | 24 | 344 | 0.0 | 0.0 | 0.00 | 0.89 | 0.00 | 93 | 1011.1 |
| 20260906081106 | 24 | 344 | 0.0 | 0.0 | 0.00 | 0.89 | 0.00 | 93 | 1011.0 |
| 20260906080606 | 24 | 344 | 0.0 | 0.0 | 0.00 | 0.89 | 0.00 | 93 | 1011.1 |
| 20260906080106 | 24 | 345 | 0.0 | 0.0 | 0.00 | 0.89 | 0.00 | 93 | 1011.2 |
| 20260906075606 | 24 | 345 | 0.0 | 0.0 | 0.00 | 0.89 | 0.00 | 93 | 1011.3 |
| 20260906075106 | 24 | 344 | 0.0 | 0.0 | 0.00 | 0.89 | 0.00 | 93 | 1011.2 |
| 20260906074106 | 24 | 344 | 0.0 | 0.0 | 0.00 | 0.89 | 0.00 | 93 | 1011.3 |
| 20260906073606 | 24 | 344 | 0.0 | 0.0 | 0.00 | 0.89 | 0.00 | 93 | 1011.4 |
| 20260906073106 | 24 | 344 | 0.0 | 0.0 | 0.00 | 0.89 | 0.00 | 93 | 1011.4 |
| 20260906072606 | 24 | 344 | 0.0 | 0.0 | 0.00 | 0.89 | 0.00 | 93 | 1011.4 |
| 20260906072106 | 24 | 344 | 0.0 | 0.0 | 0.00 | 0.89 | 0.00 | 93 | 1011.3 |
| 20260906071606 | 24 | 344 | 0.0 | 0.0 | 0.00 | 0.89 | 0.00 | 93 | 1011.3 |
| 20260906071106 | 24 | 344 | 0.0 | 0.0 | 0.00 | 0.89 | 0.00 | 93 | 1011.3 |
| 20260906070606 | 25 | 344 | 0.0 | 0.0 | 0.00 | 0.89 | 0.00 | 93 | 1011.3 |
| 20260906065106 | 25 | 344 | 0.0 | 0.0 | 0.00 | 0.89 | 0.00 | 93 | 1011.4 |
| 20260906064606 | 25 | 344 | 0.0 | 0.0 | 0.00 | 0.89 | 0.00 | 93 | 1011.4 |
| 20260906064106 | 25 | 344 | 0.0 | 0.0 | 0.00 | 0.89 | 0.00 | 93 | 1011.5 |
| 20260906063106 | 25 | 344 | 0.0 | 0.0 | 0.00 | 0.89 | 0.00 | 93 | 1011.6 |
| 20260906062106 | 25 | 344 | 0.0 | 0.0 | 0.00 | 0.89 | 0.00 | 93 | 1011.7 |
| 20260906061606 | 25 | 344 | 0.0 | 0.0 | 0.00 | 0.89 | 0.00 | 93 | 1012.0 |
| 20260906060606 | 25 | 344 | 0.0 | 0.0 | 0.00 | 0.89 | 0.00 | 93 | 1012.2 |
| 20260906060106 | 25 | 344 | 0.0 | 0.0 | 0.00 | 0.89 | 0.00 | 93 | 1012.2 |
| 20260906054606 | 25 | 344 | 0.0 | 0.0 | 0.00 | 0.89 | 0.00 | 92 | 1012.2 |
| 20260906054106 | 25 | 344 | 0.0 | 0.0 | 0.00 | 0.89 | 0.00 | 92 | 1012.3 |
| 20260906053606 | 25 | 344 | 0.0 | 0.0 | 0.00 | 0.89 | 0.00 | 92 | 1012.2 |
| 20260906053106 | 25 | 344 | 0.0 | 0.0 | 0.00 | 0.89 | 0.00 | 92 | 1012.4 |
| 20260906052606 | 25 | 344 | 0.0 | 0.0 | 0.00 | 0.89 | 0.00 | 92 | 1012.3 |
| 20260906051606 | 25 | 344 | 0.0 | 0.0 | 0.00 | 0.89 | 0.00 | 92 | 1012.4 |
| 20260906051106 | 25 | 344 | 0.0 | 0.0 | 0.00 | 0.89 | 0.00 | 92 | 1012.3 |
| 20260906050606 | 25 | 344 | 0.0 | 0.0 | 0.00 | 0.89 | 0.00 | 92 | 1012.3 |
| 20260906050136 | 25 | 344 | 0.0 | 0.0 | 0.00 | 0.89 | 0.00 | 92 | 1012.2 |
| 20260906045606 | 25 | 344 | 0.0 | 0.0 | 0.00 | 0.89 | 0.89 | 92 | 1012.3 |
| 20260906045106 | 25 | 349 | 0.0 | 0.0 | 0.00 | 0.89 | 0.89 | 92 | 1012.3 |
| 20260906044606 | 25 | 349 | 0.0 | 0.0 | 0.00 | 0.89 | 0.89 | 92 | 1012.1 |
| 20260906044106 | 25 | 349 | 0.0 | 0.0 | 0.00 | 0.89 | 0.89 | 92 | 1012.2 |
| 20260906043606 | 25 | 349 | 0.0 | 0.0 | 0.00 | 0.89 | 0.89 | 92 | 1012.2 |
| 20260906043106 | 25 | 60 | 0.0 | 0.0 | 0.00 | 0.89 | 0.89 | 92 | 1012.1 |
| 20260906042606 | 25 | 60 | 0.0 | 0.0 | 0.00 | 0.89 | 0.89 | 92 | 1011.9 |
| 20260906042106 | 25 | 60 | 0.0 | 0.0 | 0.00 | 0.89 | 0.89 | 92 | 1012.0 |
| 20260906041606 | 26 | 60 | 0.0 | 0.0 | 0.00 | 0.89 | 0.89 | 92 | 1012.0 |
| 20260906041106 | 26 | 60 | 0.0 | 0.0 | 0.00 | 0.89 | 0.89 | 92 | 1012.1 |
| 20260906040606 | 26 | 60 | 0.0 | 0.0 | 0.00 | 0.89 | 0.89 | 92 | 1012.2 |
| 20260906035606 | 26 | 60 | 0.0 | 0.0 | 0.00 | 0.89 | 0.89 | 92 | 1012.2 |
| 20260906035106 | 26 | 60 | 0.0 | 0.0 | 0.00 | 0.89 | 0.89 | 92 | 1012.3 |
| 20260906034606 | 26 | 60 | 0.0 | 0.0 | 0.00 | 0.89 | 0.89 | 92 | 1012.3 |
| 20260906034106 | 26 | 60 | 0.0 | 0.0 | 0.00 | 0.89 | 0.89 | 92 | 1012.5 |
| 20260906033606 | 26 | 60 | 0.0 | 0.0 | 0.00 | 0.89 | 0.89 | 91 | 1012.4 |
| 20260906033106 | 26 | 60 | 0.0 | 0.0 | 0.00 | 0.89 | 0.89 | 91 | 1012.7 |
| 20260906032106 | 26 | 59 | 0.0 | 0.0 | 0.00 | 0.89 | 0.89 | 92 | 1012.8 |
| 20260906031606 | 26 | 59 | 0.0 | 0.0 | 0.00 | 0.89 | 0.89 | 92 | 1013.0 |
| 20260906031106 | 26 | 60 | 0.0 | 0.0 | 0.00 | 0.89 | 0.89 | 92 | 1013.0 |
| 20260906030106 | 26 | 68 | 0.0 | 0.0 | 0.00 | 0.89 | 0.89 | 92 | 1012.9 |
| 20260906025106 | 26 | 68 | 0.0 | 0.0 | 0.00 | 0.89 | 0.89 | 91 | 1012.4 |
| 20260906024606 | 26 | 68 | 0.0 | 0.0 | 0.00 | 0.89 | 0.89 | 91 | 1012.2 |
| 20260906024106 | 26 | 68 | 0.0 | 0.0 | 0.00 | 0.89 | 0.89 | 91 | 1012.4 |
| 20260906023606 | 26 | 68 | 0.0 | 0.0 | 0.00 | 0.89 | 0.89 | 91 | 1012.4 |
| 20260906023106 | 26 | 68 | 0.0 | 0.0 | 0.00 | 0.89 | 0.89 | 91 | 1012.7 |
| 20260906022606 | 26 | 68 | 0.0 | 0.0 | 0.00 | 0.89 | 0.89 | 91 | 1012.7 |
| 20260906022107 | 26 | 68 | 0.0 | 0.0 | 0.00 | 0.89 | 0.89 | 91 | 1012.6 |
| 20260906021106 | 26 | 68 | 0.0 | 0.0 | 0.00 | 0.89 | 0.89 | 91 | 1012.6 |
| 20260906020606 | 26 | 68 | 0.0 | 0.0 | 0.00 | 0.89 | 0.89 | 91 | 1012.5 |
| 20260906015606 | 26 | 68 | 0.0 | 1.6 | 0.00 | 0.89 | 0.89 | 91 | 1012.3 |
| 20260906014606 | 26 | 105 | 0.0 | 1.6 | 0.00 | 0.89 | 0.89 | 91 | 1012.1 |
| 20260906014106 | 25 | 108 | 0.0 | 0.0 | 0.00 | 0.89 | 0.89 | 90 | 1011.9 |
| 20260906013606 | 25 | 108 | 0.0 | 0.0 | 0.00 | 0.89 | 0.89 | 90 | 1011.7 |
| 20260906013106 | 25 | 108 | 0.0 | 0.0 | 0.00 | 0.89 | 0.89 | 90 | 1011.5 |
| 20260906012606 | 25 | 108 | 0.0 | 0.0 | 0.00 | 0.89 | 0.89 | 90 | 1011.4 |
| 20260906012106 | 25 | 108 | 0.0 | 0.0 | 0.00 | 0.89 | 0.89 | 90 | 1011.2 |
| 20260906011606 | 26 | 108 | 0.0 | 0.0 | 0.00 | 0.89 | 0.89 | 89 | 1011.2 |
| 20260906010606 | 26 | 108 | 0.0 | 0.0 | 0.00 | 0.89 | 0.89 | 89 | 1010.9 |
| 20260906010106 | 26 | 108 | 0.0 | 0.0 | 0.00 | 0.89 | 0.89 | 89 | 1010.8 |
| 20260906005606 | 26 | 108 | 0.0 | 0.0 | 0.00 | 0.89 | 0.89 | 89 | 1010.7 |
| 20260906005106 | 26 | 108 | 0.0 | 0.0 | 0.00 | 0.89 | 0.89 | 88 | 1010.7 |
| 20260906004605 | 26 | 108 | 0.0 | 0.0 | 0.00 | 0.89 | 0.89 | 89 | 1010.8 |
| 20260906004106 | 26 | 108 | 0.0 | 0.0 | 0.00 | 0.89 | 0.89 | 87 | 1010.8 |
| 20260906003606 | 26 | 108 | 0.0 | 0.0 | 0.00 | 0.89 | 0.89 | 87 | 1010.5 |
| 20260906003106 | 26 | 108 | 0.0 | 0.0 | 0.00 | 0.89 | 0.89 | 87 | 1010.5 |
| 20260906002606 | 26 | 108 | 0.0 | 0.0 | 0.00 | 0.89 | 0.89 | 87 | 1010.5 |
| 20260906002106 | 26 | 108 | 0.0 | 0.0 | 0.00 | 0.89 | 0.89 | 86 | 1010.4 |
| 20260906001606 | 27 | 108 | 0.0 | 0.0 | 0.00 | 0.89 | 0.89 | 87 | 1010.4 |
| 20260906001106 | 27 | 108 | 0.0 | 0.0 | 0.00 | 0.89 | 0.89 | 87 | 1010.4 |
| 20260906000105 | 27 | 108 | 0.0 | 0.0 | 0.00 | 0.89 | 0.89 | 86 | 1010.6 |
| 20260905235606 | 27 | 108 | 0.0 | 0.0 | 0.00 | 0.89 | 0.89 | 85 | 1010.7 |
| 20260905234606 | 27 | 108 | 0.0 | 0.0 | 0.00 | 0.99 | 0.89 | 84 | 1010.9 |
| 20260905233606 | 28 | 108 | 0.0 | 0.0 | 0.00 | 1.12 | 0.89 | 84 | 1010.8 |
| 20260905233106 | 28 | 108 | 0.0 | 0.0 | 0.00 | 1.12 | 0.89 | 83 | 1010.9 |
| 20260905232105 | 28 | 108 | 0.0 | 0.0 | 0.00 | 1.63 | 0.89 | 82 | 1010.8 |
| 20260905231605 | 28 | 108 | 0.0 | 0.0 | 0.00 | 2.16 | 0.89 | 82 | 1011.0 |
| 20260905231105 | 28 | 108 | 0.0 | 0.0 | 0.00 | 2.21 | 0.89 | 81 | 1010.8 |
| 20260905230605 | 29 | 108 | 0.0 | 0.0 | 0.00 | 2.21 | 0.89 | 81 | 1010.8 |
| 20260905230105 | 29 | 108 | 0.0 | 0.0 | 0.00 | 2.21 | 0.89 | 80 | 1010.8 |
| 20260905225605 | 29 | 108 | 0.0 | 0.0 | 0.00 | 2.21 | 0.89 | 80 | 1010.9 |
| 20260905225105 | 29 | 108 | 0.0 | 0.0 | 0.00 | 2.21 | 0.89 | 80 | 1010.9 |
| 20260905224605 | 29 | 108 | 0.0 | 0.0 | 0.00 | 2.21 | 0.89 | 80 | 1011.0 |
| 20260905224105 | 29 | 108 | 0.0 | 0.0 | 0.00 | 2.21 | 0.89 | 80 | 1011.0 |
| 20260905223606 | 29 | 108 | 0.0 | 0.0 | 0.00 | 2.21 | 0.89 | 80 | 1011.0 |
| 20260905223105 | 29 | 108 | 0.0 | 0.0 | 0.00 | 2.21 | 0.89 | 80 | 1011.0 |
| 20260905222605 | 30 | 108 | 0.0 | 0.0 | 0.00 | 2.21 | 0.89 | 80 | 1011.0 |
| 20260905222105 | 30 | 108 | 0.0 | 0.0 | 0.00 | 2.21 | 0.89 | 81 | 1011.0 |
| 20260905221605 | 30 | 108 | 0.0 | 0.0 | 0.00 | 2.21 | 0.89 | 79 | 1010.9 |
| 20260905221106 | 30 | 108 | 0.0 | 0.0 | 0.00 | 2.21 | 0.89 | 79 | 1010.9 |
| 20260905220605 | 30 | 108 | 0.0 | 0.0 | 0.00 | 2.21 | 0.89 | 79 | 1011.0 |
| 20260905220105 | 30 | 108 | 0.0 | 0.0 | 0.00 | 2.21 | 0.89 | 78 | 1010.9 |
| 20260905215605 | 30 | 106 | 0.0 | 1.6 | 0.00 | 2.21 | 0.89 | 78 | 1010.8 |
| 20260905215106 | 30 | 106 | 0.0 | 1.6 | 0.00 | 2.21 | 0.89 | 78 | 1010.9 |
| 20260905214605 | 30 | 106 | 0.0 | 1.6 | 0.00 | 2.21 | 0.89 | 78 | 1010.8 |
| 20260905214106 | 30 | 106 | 0.0 | 1.6 | 0.00 | 2.21 | 0.89 | 77 | 1010.9 |
| 20260905213605 | 30 | 106 | 0.0 | 1.6 | 0.00 | 2.21 | 0.89 | 76 | 1011.0 |
| 20260905213105 | 30 | 107 | 0.0 | 1.6 | 0.00 | 2.21 | 0.89 | 78 | 1011.0 |
| 20260905212106 | 30 | 127 | 0.0 | 1.6 | 0.00 | 2.21 | 0.89 | 77 | 1011.1 |
| 20260905211606 | 30 | 127 | 0.0 | 3.2 | 0.00 | 2.21 | 0.89 | 78 | 1011.2 |
| 20260905211106 | 30 | 107 | 0.0 | 3.2 | 0.00 | 2.21 | 0.89 | 77 | 1011.2 |
| 20260905210605 | 30 | 359 | 0.0 | 1.6 | 0.00 | 2.21 | 0.89 | 76 | 1011.2 |
| 20260905205605 | 30 | 72 | 1.6 | 3.2 | 0.00 | 2.21 | 0.89 | 78 | 1011.3 |
| 20260905205106 | 30 | 77 | 0.0 | 1.6 | 0.00 | 2.21 | 0.89 | 81 | 1011.5 |
| 20260905204605 | 30 | 77 | 0.0 | 1.6 | 0.00 | 2.21 | 0.89 | 82 | 1011.4 |
| 20260905204105 | 30 | 326 | 0.0 | 1.6 | 0.00 | 2.21 | 0.89 | 80 | 1011.5 |
| 20260905203605 | 30 | 54 | 0.0 | 3.2 | 0.00 | 2.21 | 0.89 | 81 | 1011.5 |
| 20260905203105 | 30 | 112 | 0.0 | 3.2 | 0.00 | 2.21 | 0.89 | 80 | 1011.7 |
| 20260905202605 | 30 | 100 | 1.6 | 1.6 | 0.00 | 2.21 | 0.89 | 82 | 1012.0 |
| 20260905202105 | 30 | 156 | 1.6 | 1.6 | 0.00 | 2.21 | 0.89 | 83 | 1012.3 |
| 20260905201105 | 29 | 136 | 0.0 | 1.6 | 0.00 | 2.21 | 0.89 | 82 | 1012.3 |
| 20260905200105 | 29 | 326 | 0.0 | 0.0 | 0.00 | 2.21 | 0.89 | 80 | 1012.4 |
| 20260905195605 | 29 | 328 | 0.0 | 0.0 | 0.00 | 2.21 | 0.89 | 79 | 1012.6 |
| 20260905195106 | 29 | 328 | 0.0 | 0.0 | 0.00 | 2.21 | 0.89 | 81 | 1012.7 |
| 20260905194605 | 29 | 328 | 0.0 | 1.6 | 0.00 | 2.21 | 0.89 | 82 | 1012.8 |
| 20260905193605 | 28 | 347 | 0.0 | 3.2 | 0.00 | 2.21 | 0.89 | 84 | 1012.9 |
| 20260905193105 | 28 | 348 | 1.6 | 3.2 | 0.00 | 2.21 | 0.89 | 84 | 1013.0 |
| 20260905192605 | 28 | 72 | 0.0 | 1.6 | 0.00 | 2.21 | 0.89 | 86 | 1013.2 |
| 20260905192105 | 28 | 355 | 0.0 | 3.2 | 0.00 | 2.21 | 0.89 | 88 | 1013.2 |
| 20260905191605 | 28 | 316 | 0.0 | 3.2 | 0.00 | 2.21 | 0.89 | 88 | 1013.3 |
| 20260905191105 | 27 | 321 | 0.0 | 1.6 | 0.00 | 2.21 | 0.89 | 88 | 1013.3 |
| 20260905190135 | 27 | 348 | 0.0 | 1.6 | 0.00 | 2.21 | 0.89 | 89 | 1013.4 |
| 20260905185105 | 27 | 300 | 0.0 | 3.2 | 0.00 | 2.21 | 0.89 | 91 | 1013.4 |
| 20260905184605 | 26 | 300 | 0.0 | 3.2 | 0.00 | 2.21 | 0.89 | 91 | 1013.2 |
| 20260905184105 | 26 | 309 | 1.6 | 4.8 | 0.03 | 2.21 | 0.89 | 91 | 1013.3 |
| 20260905183605 | 26 | 310 | 0.0 | 4.8 | 0.10 | 2.21 | 0.89 | 91 | 1013.4 |
| 20260905183105 | 26 | 314 | 1.6 | 4.8 | 0.20 | 2.21 | 0.89 | 92 | 1013.3 |
| 20260905182605 | 26 | 307 | 0.0 | 3.2 | 0.48 | 2.21 | 0.89 | 92 | 1013.5 |
| 20260905182105 | 26 | 300 | 0.0 | 3.2 | 0.58 | 2.21 | 0.89 | 92 | 1013.6 |
| 20260905181105 | 26 | 300 | 1.6 | 3.2 | 0.71 | 2.21 | 0.89 | 93 | 1013.6 |
| 20260905180605 | 26 | 298 | 1.6 | 3.2 | 0.71 | 2.21 | 0.89 | 92 | 1013.6 |
| 20260905180105 | 26 | 310 | 1.6 | 4.8 | 0.71 | 2.21 | 0.89 | 92 | 1013.7 |
| 20260905175605 | 26 | 311 | 1.6 | 4.8 | 0.71 | 2.21 | 0.89 | 92 | 1013.8 |
| 20260905175105 | 26 | 307 | 0.0 | 4.8 | 0.71 | 2.21 | 0.89 | 92 | 1013.8 |
| 20260905174605 | 26 | 309 | 3.2 | 4.8 | 0.71 | 2.21 | 0.89 | 92 | 1013.9 |
| 20260905174105 | 26 | 302 | 0.0 | 3.2 | 0.69 | 2.18 | 0.86 | 92 | 1014.0 |
| 20260905173605 | 26 | 302 | 0.0 | 4.8 | 0.61 | 2.11 | 0.79 | 91 | 1014.1 |
| 20260905173105 | 26 | 305 | 3.2 | 6.4 | 0.51 | 2.01 | 0.69 | 91 | 1014.3 |
| 20260905172105 | 27 | 300 | 0.0 | 4.8 | 0.13 | 1.63 | 0.30 | 89 | 1014.4 |
| 20260905171605 | 27 | 321 | 1.6 | 4.8 | 0.00 | 1.50 | 0.18 | 88 | 1014.4 |
| 20260905171105 | 28 | 285 | 0.0 | 1.6 | 0.00 | 1.50 | 0.18 | 87 | 1014.6 |
| 20260905170605 | 28 | 296 | 0.0 | 6.4 | 0.00 | 1.50 | 0.18 | 86 | 1014.5 |
| 20260905170105 | 28 | 299 | 0.0 | 6.4 | 0.00 | 1.50 | 0.18 | 84 | 1014.7 |
| 20260905165605 | 28 | 337 | 6.4 | 6.4 | 0.00 | 1.50 | 0.18 | 83 | 1014.7 |
| 20260905165105 | 28 | 314 | 0.0 | 6.4 | 0.00 | 1.50 | 0.18 | 83 | 1014.7 |
| 20260905164605 | 28 | 316 | 3.2 | 6.4 | 0.00 | 1.50 | 0.18 | 82 | 1014.5 |
| 20260905164105 | 29 | 290 | 1.6 | 4.8 | 0.00 | 1.50 | 0.18 | 83 | 1014.5 |
| 20260905163605 | 29 | 320 | 4.8 | 4.8 | 0.00 | 1.50 | 0.18 | 83 | 1014.6 |
| 20260905163105 | 28 | 320 | 0.0 | 4.8 | 0.00 | 1.50 | 0.18 | 83 | 1014.7 |
| 20260905162605 | 28 | 320 | 0.0 | 4.8 | 0.00 | 1.50 | 0.18 | 82 | 1014.8 |
| 20260905162105 | 28 | 317 | 4.8 | 4.8 | 0.00 | 1.50 | 0.18 | 82 | 1014.9 |
| 20260905161605 | 28 | 322 | 0.0 | 3.2 | 0.00 | 1.50 | 0.18 | 82 | 1014.8 |
| 20260905161105 | 28 | 295 | 0.0 | 1.6 | 0.00 | 1.50 | 0.18 | 83 | 1014.8 |
| 20260905160605 | 28 | 315 | 1.6 | 1.6 | 0.00 | 1.50 | 0.18 | 84 | 1014.9 |
| 20260905155605 | 28 | 309 | 0.0 | 1.6 | 0.00 | 1.50 | 0.18 | 86 | 1014.9 |
| 20260905155105 | 28 | 310 | 0.0 | 1.6 | 0.00 | 1.50 | 0.18 | 83 | 1014.9 |
| 20260905154605 | 28 | 309 | 0.0 | 1.6 | 0.00 | 1.50 | 0.18 | 85 | 1014.8 |
| 20260905154105 | 28 | 309 | 0.0 | 1.6 | 0.00 | 1.50 | 0.18 | 85 | 1014.9 |
| 20260905153605 | 28 | 222 | 0.0 | 1.6 | 0.00 | 1.50 | 0.18 | 85 | 1014.8 |
| 20260905153105 | 28 | 207 | 0.0 | 4.8 | 0.00 | 1.50 | 0.18 | 86 | 1014.7 |
| 20260905152605 | 28 | 314 | 0.0 | 4.8 | 0.00 | 1.50 | 0.18 | 86 | 1014.8 |
| 20260905152105 | 27 | 330 | 0.0 | 3.2 | 0.00 | 1.50 | 0.18 | 87 | 1014.8 |
| 20260905151605 | 27 | 118 | 0.0 | 1.6 | 0.00 | 1.50 | 0.18 | 88 | 1014.9 |
| 20260905150105 | 27 | 120 | 0.0 | 3.2 | 0.00 | 1.50 | 0.18 | 89 | 1014.8 |
| 20260905145605 | 27 | 168 | 0.0 | 1.6 | 0.00 | 1.50 | 0.18 | 89 | 1014.7 |
| 20260905145105 | 27 | 162 | 0.0 | 1.6 | 0.00 | 1.50 | 0.18 | 90 | 1014.7 |